Location: Armidale
(30.5016°S, 151.6662°E)
Time: 08:16:29
(UTC+10:00)

N. Korean satellite - Pass Details

Date: 24 May 2021
Orbit: 450 x 500 km, 97.2° (Epoch: 18 June)

Event Time Altitude Azimuth Distance (km) Brightness Sun altitude
Rises 05:11:53 0° 346° (NNW) 2,494 10.2 -18.3°
Reaches altitude 10° 05:14:12 10° 331° (NNW) 1,637 9.1 -17.8°
Enters shadow 05:14:40 13° 325° (NW) 1,486 8.8 -17.7°
